Hourly Weather Aalst

Today, 26 October, Monday

Time Temperature Precipitation Wind Pressure Humidity
00:00 +8°C° 0 mm 6 mps 750 mmHg 86%
01:00 +7°C° 0 mm 6 mps 750 mmHg 87%
02:00 +7°C° 0 mm 6 mps 750 mmHg 87%
03:00 +7°C° 0 mm 6 mps 750 mmHg 88%
04:00 +7°C° 0 mm 6 mps 750 mmHg 88%
05:00 +5°C° 0 mm 6 mps 750 mmHg 88%
06:00 +5°C° 0 mm 6 mps 750 mmHg 89%
07:00 +7°C° 0 mm 6 mps 750 mmHg 85%
08:00 +8°C° 0 mm 6 mps 750 mmHg 82%
09:00 +9°C° 0 mm 6 mps 750 mmHg 79%
10:00 +10°C° 0 mm 7 mps 750 mmHg 74%
11:00 +11°C° 0 mm 7 mps 750 mmHg 70%
12:00 +11°C° 0 mm 8 mps 750 mmHg 66%
13:00 +11°C° 0 mm 8 mps 750 mmHg 66%
14:00 +11°C° 0 mm 7 mps 749 mmHg 65%
15:00 +11°C° 0 mm 7 mps 749 mmHg 65%
16:00 +10°C° 0.1 mm 7 mps 749 mmHg 68%
17:00 +10°C° 0.1 mm 7 mps 749 mmHg 71%
18:00 +9°C° 0.1 mm 7 mps 749 mmHg 75%
19:00 +9°C° 0.2 mm 7 mps 749 mmHg 77%
20:00 +9°C° 0.2 mm 7 mps 749 mmHg 79%
21:00 +8°C° 0.2 mm 6 mps 749 mmHg 82%
22:00 +8°C° 0 mm 6 mps 749 mmHg 84%
23:00 +8°C° 0 mm 6 mps 750 mmHg 86%

Tomorrow, 27 October, Tuesday

Time Temperature Precipitation Wind Pressure Humidity
00:00 +8°C° 0 mm 5 mps 750 mmHg 88%
01:00 +7°C° 0.2 mm 5 mps 750 mmHg 88%
02:00 +7°C° 0.2 mm 5 mps 750 mmHg 88%
03:00 +7°C° 0.2 mm 5 mps 750 mmHg 88%
04:00 +7°C° 0 mm 6 mps 750 mmHg 88%
05:00 +7°C° 0 mm 6 mps 750 mmHg 89%
06:00 +7°C° 0 mm 6 mps 751 mmHg 89%
07:00 +8°C° 0 mm 6 mps 751 mmHg 87%
08:00 +8°C° 0 mm 6 mps 751 mmHg 86%
09:00 +8°C° 0 mm 6 mps 751 mmHg 84%
10:00 +9°C° 0 mm 7 mps 751 mmHg 79%
11:00 +10°C° 0 mm 7 mps 751 mmHg 74%
12:00 +11°C° 0 mm 7 mps 751 mmHg 69%
13:00 +11°C° 0 mm 7 mps 751 mmHg 68%
14:00 +11°C° 0 mm 7 mps 750 mmHg 67%
15:00 +11°C° 0 mm 7 mps 750 mmHg 66%
16:00 +11°C° 0.3 mm 7 mps 749 mmHg 71%
17:00 +10°C° 0.3 mm 8 mps 749 mmHg 77%
18:00 +10°C° 0.3 mm 9 mps 748 mmHg 82%
19:00 +10°C° 0.6 mm 9 mps 748 mmHg 84%
20:00 +10°C° 0.6 mm 9 mps 748 mmHg 86%
21:00 +11°C° 0.6 mm 9 mps 748 mmHg 88%
22:00 +10°C° 0.5 mm 7 mps 748 mmHg 86%
23:00 +10°C° 0.5 mm 6 mps 748 mmHg 83%

Day after tomorrow, 28 October, Wednesday

Time Temperature Precipitation Wind Pressure Humidity
00:00 +11°C° 0.5 mm 4 mps 749 mmHg 81%
01:00 +10°C° 0 mm 4 mps 749 mmHg 82%
02:00 +8°C° 0 mm 5 mps 749 mmHg 83%
03:00 +8°C° 0 mm 5 mps 750 mmHg 84%
04:00 +8°C° 0 mm 5 mps 750 mmHg 83%
05:00 +8°C° 0 mm 6 mps 750 mmHg 83%
06:00 +8°C° 0 mm 6 mps 750 mmHg 82%
07:00 +8°C° 0 mm 7 mps 750 mmHg 80%
08:00 +9°C° 0 mm 8 mps 750 mmHg 78%
09:00 +10°C° 0 mm 9 mps 750 mmHg 77%
10:00 +10°C° 0.2 mm 9 mps 750 mmHg 76%
11:00 +10°C° 0.2 mm 9 mps 750 mmHg 76%
12:00 +10°C° 0.2 mm 9 mps 750 mmHg 76%
13:00 +11°C° 0.3 mm 8 mps 750 mmHg 74%
14:00 +11°C° 0.3 mm 8 mps 749 mmHg 72%
15:00 +11°C° 0.3 mm 8 mps 749 mmHg 71%
16:00 +11°C° 0.2 mm 8 mps 749 mmHg 72%
17:00 +10°C° 0.2 mm 8 mps 750 mmHg 73%
18:00 +10°C° 0.2 mm 8 mps 750 mmHg 75%
19:00 +10°C° 0.3 mm 8 mps 750 mmHg 76%
20:00 +9°C° 0.3 mm 8 mps 750 mmHg 78%
21:00 +8°C° 0.3 mm 9 mps 750 mmHg 79%
22:00 +8°C° 0.4 mm 9 mps 751 mmHg 79%
23:00 +8°C° 0.4 mm 9 mps 751 mmHg 80%

29 October, Thursday

Time Temperature Precipitation Wind Pressure Humidity
00:00 +8°C° 0.4 mm 9 mps 751 mmHg 80%
01:00 +9°C° 0.2 mm 8 mps 752 mmHg 80%
02:00 +9°C° 0.2 mm 8 mps 752 mmHg 80%
03:00 +9°C° 0.2 mm 8 mps 753 mmHg 80%
04:00 +9°C° 0.2 mm 8 mps 753 mmHg 80%
05:00 +9°C° 0.2 mm 8 mps 754 mmHg 80%
06:00 +9°C° 0.2 mm 8 mps 755 mmHg 80%
07:00 +9°C° 0.1 mm 8 mps 755 mmHg 80%
08:00 +9°C° 0.1 mm 8 mps 755 mmHg 80%
09:00 +9°C° 0.1 mm 8 mps 756 mmHg 80%
10:00 +10°C° 0 mm 8 mps 756 mmHg 79%
11:00 +11°C° 0 mm 8 mps 756 mmHg 77%
12:00 +11°C° 0 mm 9 mps 756 mmHg 76%
13:00 +11°C° 0 mm 9 mps 756 mmHg 76%
14:00 +12°C° 0 mm 9 mps 756 mmHg 75%
15:00 +12°C° 0 mm 9 mps 756 mmHg 74%
16:00 +12°C° 0 mm 9 mps 756 mmHg 74%
17:00 +13°C° 0 mm 10 mps 756 mmHg 74%
18:00 +13°C° 0 mm 10 mps 756 mmHg 74%
19:00 +13°C° 0 mm 10 mps 756 mmHg 73%
20:00 +13°C° 0 mm 10 mps 756 mmHg 73%
21:00 +13°C° 0 mm 10 mps 757 mmHg 73%
22:00 +13°C° 0 mm 9 mps 757 mmHg 74%
23:00 +13°C° 0 mm 9 mps 757 mmHg 75%

30 October, Friday

Time Temperature Precipitation Wind Pressure Humidity
00:00 +13°C° 0 mm 9 mps 757 mmHg 75%
01:00 +13°C° 0 mm 9 mps 757 mmHg 76%
02:00 +13°C° 0 mm 9 mps 757 mmHg 76%
03:00 +13°C° 0 mm 9 mps 757 mmHg 76%
04:00 +13°C° 0 mm 9 mps 757 mmHg 75%
05:00 +13°C° 0 mm 9 mps 757 mmHg 75%
06:00 +13°C° 0 mm 9 mps 757 mmHg 74%
07:00 +13°C° 0 mm 9 mps 757 mmHg 74%
08:00 +13°C° 0 mm 9 mps 758 mmHg 75%
09:00 +13°C° 0 mm 10 mps 758 mmHg 75%
10:00 +15°C° 0 mm 9 mps 758 mmHg 74%
11:00 +15°C° 0 mm 9 mps 758 mmHg 72%
12:00 +16°C° 0 mm 8 mps 758 mmHg 71%
13:00 +16°C° 0 mm 8 mps 758 mmHg 70%
14:00 +16°C° 0 mm 7 mps 758 mmHg 70%
15:00 +16°C° 0 mm 7 mps 758 mmHg 69%
16:00 +15°C° 0 mm 6 mps 758 mmHg 71%
17:00 +15°C° 0 mm 6 mps 758 mmHg 72%
18:00 +14°C° 0 mm 6 mps 758 mmHg 73%
19:00 +14°C° 0 mm 6 mps 757 mmHg 74%
20:00 +14°C° 0 mm 6 mps 757 mmHg 75%
21:00 +14°C° 0 mm 6 mps 757 mmHg 76%
22:00 +13°C° 0 mm 6 mps 757 mmHg 75%
23:00 +13°C° 0 mm 6 mps 756 mmHg 75%

31 October, Saturday

Time Temperature Precipitation Wind Pressure Humidity
00:00 +12°C° 0 mm 7 mps 756 mmHg 75%
01:00 +12°C° 0 mm 7 mps 755 mmHg 77%
02:00 +12°C° 0 mm 7 mps 755 mmHg 78%
03:00 +12°C° 0 mm 8 mps 754 mmHg 80%
04:00 +12°C° 0 mm 8 mps 754 mmHg 80%
05:00 +12°C° 0 mm 8 mps 754 mmHg 79%
06:00 +12°C° 0 mm 8 mps 754 mmHg 79%
Show more